Location: Ahausen
(50.4985°N, 8.2722°E)
Time: 01:37:45
(UTC+00:00)

Okean 2 Rocket - Pass Details

Date: 18 September 2020
Orbit: 616 x 642 km, 82.5° (Epoch: 23 October)

Event Time Altitude Azimuth Distance (km) Brightness Sun altitude
Rises 19:41:28 0° 206° (SSW) 2,935 6.5 -20.3°
Reaches altitude 10° 19:43:48 10° 212° (SSW) 2,028 5.7 -20.6°
Maximum altitude 19:48:07 45° 285° (WNW) 874 4.2 -21.2°
Drops below altitude 10° 19:52:27 10° 359° (N) 2,029 6.1 -21.8°
Sets 19:54:47 0° 6° (N) 2,938 6.9 -22.1°
